sat.trackr.live / text

‹ back to catalog

STARLINK-11519 [DTC]

NORAD 62560 · 2025-006G

PAYLOAD ACTIVE UNKNOWN

§ Identity

Operator
Country
US
Launch date
2025-01-10
Launch site
AFETR
Launch vehicle
Mass (kg)
RCS (m²)

Purposes: comms

External: N2YO · Heavens-Above · Gunter

§ Orbital elements

Epoch: 2026-05-24T18:30:49.863744Z

Period
91.66 min
Inclination
42.9999°
Eccentricity
0.0005626
Mean motion
15.70995030 rev/d
Perigee alt
352.3 km
Apogee alt
359.8 km
Semi-major
6,734.2 km
B*
1.2343e-3
RAAN
41.6880°
Arg perigee
290.0576°
Mean anomaly
69.9686°
Rev number
7,856

§ Raw data

STARLINK-11519 [DTC]1 62560U 25006G   26144.77141046  .00162216  00000+0  12343-2 0  99912 62560  42.9999  41.6880 0005626 290.0576  69.9686 15.70995030 78567

JSON: /api/v1/satellites/62560 · /tle

For live sub-satellite position, see the globe view (requires WebGL).

§ Visibility from observer

Set your observer location to see the next 7 days of passes ≥ 10°. The values pass through the URL so the page stays shareable.

No JS? Fill the form by hand. The geolocation button needs JavaScript.